COSMOS 1275 DEB, 12672

Orbit data source: Space-Track

COSMOS 1275 DEB, 12672 is space debris in LEO originally from a launch on Thu, 04 Jun 1981 UTC launched from the Plesetsk Missile And Space Complex (PKMTR). Debris objects in space refer to the collection of defunct objects orbiting the Earth. Examples of debris include non-operational satellites, rocket bodies, and fragments generated from explosions, collisions, or faulty payload assembly.

Loading next visibility...
Identifier
12672, 1981-053AC
Orbit
LEO
Country
Flag of CISCIS
Related business
Manufacturer
Unknown
Mission
Spacecraft
Bus & Motor
Unknown
Mass
Unknown
Launch date (UTC)
1981-06-04 (45 years ago)
Launch vehicle
Unknown
Launch site
Plesetsk Missile And Space Complex (PKMTR)
Object type
Payload
Rocket body
Debris
Shape & HBR
Unknown shape, 0.3 m
Radar Cross Section
Medium (>0.1 m² and <1 m²)

Expand to show TLE details & history
Last TLE update: 13 hours ago

TLE from 13 hours ago
0 COSMOS 1275 DEB
1 12672U 81053AC  26037.08593972  .00000837  00000-0  73848-3 0  9997
2 12672  82.9404 268.8218 0025308 272.3576 241.6840 13.83964985240278
Epoch: 2026-02-06T02:03Z
TLE epoch observation values (Epoch: 2026-02-06T02:03:45.191Z)
Latitude
26.03239°
Longitude
-81.7951°
Altitude
961.858 km
Speed
7.369 km/s
True Right ascension
05h 41m 29s
True Declination
25° 54' 03"
Sunlit
Object was in full shadow at epoch
Visualization orbit readout
Latitude
Unknown
Longitude
Unknown
Altitude
Unknown
Speed
Unknown
Apparent Right ascension
Unknown
Apparent Declination
Unknown
Sunlit
N/A
Visualization observer readout
Local Sidereal Time
17:39:03
Azimuth
Unknown
Elevation
Unknown
Doppler factor
Unknown
Orbital elements
Apogee altitude
965.532 km
Perigee altitude
928.455 km
Semi-major axis
7,325.13 km
Eccentricity
0.00253
Inclination
82.9404°
RAAN
268.8218°
Arg. of periapsis
272.3576°
True anomaly
241.42908°
Mean anomaly
241.684°
Eccentric anomaly
241.5565°
Mean motion
3.46194 °/min
Orbital period
103.99 mins
BSTAR
0.00073848
Loading maneuver chart data...
Computing Atmospheric mass density...
Loading historical data...
Loading historical data...
Loading historical data...
Loading historical data...
Loading historical data...
Loading historical data...
Loading historical data...

Documentation

Showing up to 5 results
|